CZ-4C DEB, 44617

Orbit data source: Space-Track

CZ-4C DEB, 44617 is space debris in LEO originally from a launch on Tue, 10 Apr 2018 UTC launched from the Taiyaun Space Center, China (TSC). Debris objects in space refer to the collection of defunct objects orbiting the Earth. Examples of debris include non-operational satellites, rocket bodies, and fragments generated from explosions, collisions, or faulty payload assembly.

Loading next visibility...
Identifier
44617, 2018-034J
Orbit
LEO
Country
Flag of CNCN / PRC
Related business
Manufacturer
Unknown
Mission
Spacecraft
Bus & Motor
Unknown
Mass
Unknown
Launch date (UTC)
2018-04-10 (8 years ago)
Launch vehicle
Unknown
Launch site
Taiyaun Space Center, China (TSC)
Object type
Payload
Rocket body
Debris
Shape & HBR
Unknown shape, 0.1 m
Radar Cross Section
Small (<0.1 m²)

Expand to show TLE details & history
Last TLE update: 2 days ago

TLE from 2 days ago
0 CZ-4C DEB
1 44617U 18034J   25295.55052560 -.00000075  00000-0  21739-4 0  9998
2 44617  63.4008  36.8137 0231138   6.8257 353.5823 13.40994488362379
Epoch: 2025-10-22T13:12Z
TLE epoch observation values (Epoch: 2025-10-22T13:12:45.411Z)
Latitude
-0.00009°
Longitude
167.40192°
Altitude
935.482 km
Speed
7.469 km/s
True Right ascension
02h 27m 15s
True Declination
0° 00' 00"
Sunlit
Object was in full shadow at epoch
Visualization orbit readout
Latitude
Unknown
Longitude
Unknown
Altitude
Unknown
Speed
Unknown
Apparent Right ascension
Unknown
Apparent Declination
Unknown
Sunlit
N/A
Visualization observer readout
Local Sidereal Time
04:10:38
Azimuth
Unknown
Elevation
Unknown
Doppler factor
Unknown
Orbital elements
Apogee altitude
1,277.358 km
Perigee altitude
931.458 km
Semi-major axis
7,482.545 km
Eccentricity
0.02311
Inclination
63.4008°
RAAN
36.8137°
Arg. of periapsis
6.8257°
True anomaly
353.27751°
Mean anomaly
353.5823°
Eccentric anomaly
353.43079°
Mean motion
3.35327 °/min
Orbital period
107.36 mins
BSTAR
0.000021739
Loading maneuver chart data...
Computing Atmospheric mass density...
Loading historical data...
Loading historical data...
Loading historical data...
Loading historical data...
Loading historical data...
Loading historical data...
Loading historical data...

Documentation

Showing up to 5 results
|